SCP
0 0 0 0 0 0 0 0 0 0 0 0 0 0 0 0 0 0 0 0 0 0 0 0 0 0 0 0 0 0 0 0 0 0 0 0 0 0 0 0 0 0 0
0 0 0 0 0 0 0 0 0 0 0 0 0 0 0 0 0 0 0 0 0 0 0 0 0 0 0 0 0 0 0 0 0 0 0 0 0 0 0 0 0 0 0
0 0 0 0 0 0 0 0 0 0 0 0 0 0 0 0 0 0 0 0 0 0 0 0 0 0 0 0 0 0 0 0 0 0 0 0 0 0 0 0 0 0 0
0 0 0 0 0 0 0 0 0 0 0 0 0 0 0 0 0 0 0 0 0 0 0 0 0 0 0 0 0 0 0 0 0 0 0 0 0 0 0 0 0 0 0
0 0 0 0 0 0 0 0 0 0 0 0 0 0 0 0 0 0 0 0 0 0 0 0 0 0 0 0 0 0 0 0 0 0 0 0 0 0 0 0 0 0 0
0 0 0 0 0 0 0 0 0 0 0 0 0 0 0 0 0 0 0 0 0 0 0 0 0 0 0 0 0 0 0 0 0 0 0 0 0 0 0 0 0 0 0
0 0 0 0 0 0 0 0 0 0 0 0 0 0 0 0 0 0 0 0 0 0 0 0 0 0 0 0 0 0 0 0 0 0 0 0 0 0 0 0 0 0 0
0 0 0 0 0 0 0 0 0 0 0 0 0 0 0 0 0 0 0 0 0 0 0 0 0 0 0 0 0 0 0 0 0 0 0 0 0 0 0 0 0 0 0
0 0 0 0 0 0 0 0 0 0 0 0 0 0 0 0 0 0 0 0 0 0 0 0 0 0 0 0 0 0 0 0 0 0 0 0 0 0 0 0 0 0 0
0 0 0 0 0 0 0 0 0 0 0 0 0 0 0 0 0 0 0 0 0 0 0 0 0 0 0 0 0 0 0 0 0 0 0 0 0 0 0 0 0 0 0
0 0 0 0 0 0 0 0 0 0 0 0 0 0 0 0 0 0 0 0 0 0 0 0 0 0 0 0 0 0 0 0 0 0 0 0 0 0 0 0 0 0 0
0 0 0 0 0 0 0 0 0 0 0 0 0 0 0 0 0 0 0 0 0 0 0 0 0 0 0 0 0 0 0 0 0 0 0 0 0 0 0 0 0 0 0
0 0 0 0 0 0 0 0 0 0 0 0 0 0 0 0 0 0 0 0 0 0 0 0 0 0 0 0 0 0 0 0 0 0 0 0 0 0 0 0 0 0 0
0 0 0 0 0 0 0 0 0 0 0 0 0 0 0 0 0 0 0 0 0 0 0 0 0 0 0 0 0 0 0 0 0 0 0 0 0 0 0 0 0 0 0
0 0 0 0 0 0 0 0 0 0 0 0 0 0 0 0 0 0 0 0 0 0 0 0 0 0 0 0 0 0 0 0 0 0 0 0 0 0 0 0 0 0 0
0 0 0 0 0 0 0 0 0 0 0 0 0 0 0 0 0 0 0 0 0 0 0 0 0 0 0 0 0 0 0 0 0 0 0 0 0 0 0 0 0 0 0
0 0 0 0 0 0 0 0 0 0 0 0 0 0 0 0 0 0 0 0 0 0 0 0 0 0 0 0 0 0 0 0 0 0 0 0 0 0 0 0 0 0 0
0 0 0 0 0 0 0 0 0 0 0 0 0 0 0 0 0 0 0 0 0 0 0 0 0 0 0 0 0 0 0 0 0 0 0 0 0 0 0 0 0 0 0
0 0 0 0 0 0 0 0 0 0 0 0 0 0 0 0 0 0 0 0 0 0 0 0 0 0 0 0 0 0 0 0 0 0 0 0 0 0 0 0 0 0 0
0 0 0 0 0 0 0 0 0 0 0 0 0 0 0 0 0 0 0 0 0 0 0 0 0 0 0 0 0 0 0 0 0 0 0 0 0 0 0 0 0 0 0
0 0 0 0 0 0 0 0 0 0 0 0 0 0 0 0 0 0 0 0 0 0 0 0 0 0 0 0 0 0 0 0 0 0 0 0 0 0 0 0 0 0 0
0 0 0 0 0 0 0 0 0 0 0 0 0 0 0 0 0 0 0 0 0 0 0 0 0 0 0 0 0 0 0 0 0 0 0 0 0 0 0 0 0 0 0
0 0 0 0 0 0 0 0 0 0 0 0 0 0 0 0 0 0 0 0 0 0 0 0 0 0 0 0 0 0 0 0 0 0 0 0 0 0 0 0 0 0 0
0 0 0 0 0 0 0 0 0 0 0 0 0 0 0 0 0 0 0 0 0 0 0 0 0 0 0 0 0 0 0 0 0 0 0 0 0 0 0 0 0 0 0
0 0 0 0 0 0 0 0 0 0 0 0 0 0 0 0 0 0 0 0 0 0 0 0 0 0 0 0 0 0 0 0 0 0 0 0 0 0 0 0 -0 -0 -0
0 0 0 0 0 0 0 0 0 0 0 0 0 0 0 0 0 0 0 0 0 0 0 0 0 0 0 0 0 0 0 0 0 0 0 0 0 0 0 -0 -0 -0 -0
Wind_Speed_500mb
87 86 86 86 78 70 61 55 47 42 37 33 29 24 18 11 6 4 2 1 3 8 13 17 21 24 27 31 35 38 40 44 55 67 70 78 86 89 87 88 90 89 82
89 87 90 87 81 73 66 56 49 44 42 37 34 27 20 15 10 6 5 4 5 10 15 20 24 27 31 34 37 40 43 45 51 64 72 81 87 87 89 93 94 94 94
90 90 90 88 82 74 67 59 54 50 46 44 38 30 25 20 14 11 10 9 11 15 19 23 27 31 34 37 39 42 44 46 51 63 76 82 87 88 93 96 98 96 94
92 92 90 88 82 76 70 63 58 53 50 47 41 37 31 23 18 16 16 15 15 20 25 28 31 34 36 38 40 42 45 48 53 63 73 83 85 87 88 90 104 95 96
95 95 93 88 81 78 73 67 62 57 54 50 46 42 36 28 23 20 21 19 21 24 28 32 34 35 36 38 41 42 44 49 55 62 70 76 83 90 89 86 90 93 89
99 95 91 87 84 80 74 70 65 61 60 57 52 46 38 31 27 24 27 24 27 28 31 35 37 38 38 39 42 43 45 49 53 58 63 68 80 83 78 80 78 100 102
103 99 93 90 87 83 77 73 68 67 64 60 53 51 42 37 31 32 31 29 31 32 36 38 39 40 40 41 42 45 47 48 51 46 61 64 77 67 70 87 87 88 93
104 100 97 93 88 82 78 74 71 69 65 58 59 53 48 41 39 40 36 35 36 38 40 41 43 44 43 45 46 50 51 53 57 55 60 67 58 61 67 73 76 81 85
105 102 96 91 86 83 81 78 72 68 66 61 67 59 52 46 47 45 44 44 42 43 44 44 46 48 47 48 50 53 55 57 55 58 65 63 62 63 62 67 69 74 87
100 97 95 87 82 87 81 76 66 69 65 74 68 62 54 54 52 52 53 52 50 48 47 49 50 52 51 51 51 50 57 56 57 69 70 67 63 61 57 57 59 66 73
85 86 86 86 90 83 78 73 67 71 78 75 67 62 60 59 57 57 58 60 56 54 54 53 52 54 56 55 51 51 56 51 60 66 70 69 64 62 57 54 54 58 66
62 62 68 77 79 79 78 71 71 80 76 72 69 66 66 64 62 62 64 62 60 62 59 56 56 57 60 57 48 45 56 51 62 68 68 66 64 63 60 56 57 60 60
37 41 49 58 62 63 71 80 79 73 72 70 69 70 67 64 65 63 63 63 63 63 63 59 60 62 59 45 49 55 64 64 64 68 67 65 62 62 62 62 59 62 64
38 45 53 59 65 67 68 67 66 66 67 68 68 67 65 66 64 64 65 63 63 63 60 59 59 59 56 56 59 55 58 61 65 68 67 66 63 61 63 61 63 62 69
29 36 42 47 50 53 55 58 61 61 62 64 64 63 63 65 62 59 62 64 62 60 59 64 65 62 62 61 59 62 63 64 66 65 64 65 63 61 60 58 56 57 60
26 31 35 38 41 45 50 54 58 61 63 63 64 65 65 66 66 62 61 62 62 60 54 60 64 65 68 69 65 66 68 69 66 65 61 61 61 59 60 54 52 52 55
24 28 34 38 42 46 50 56 60 59 59 60 62 64 65 54 54 55 52 43 36 36 50 62 69 74 75 75 75 73 73 70 70 63 58 58 57 57 55 51 49 48 50
29 30 35 38 41 45 47 50 52 53 54 53 54 51 50 47 48 47 47 50 58 61 65 70 75 76 79 81 81 78 76 72 67 61 56 55 53 54 51 46 43 44 45
35 36 38 39 41 45 48 50 52 51 50 47 45 46 46 48 52 55 57 61 61 62 63 66 69 72 76 79 78 76 74 70 63 58 55 52 49 49 47 41 40 36 37
34 35 37 37 38 39 39 39 39 38 37 37 38 40 43 48 50 52 53 56 58 60 63 67 68 68 69 68 66 63 62 60 54 54 53 49 46 46 44 39 34 34 30
28 28 28 28 28 29 30 30 30 31 32 34 36 40 40 46 48 48 49 52 55 59 60 61 60 60 60 59 60 59 56 53 51 51 50 46 44 44 40 37 31 28 27
24 23 23 22 21 21 22 25 28 31 34 35 36 36 40 44 47 50 51 52 52 54 53 54 55 52 51 52 53 53 52 52 50 49 48 44 44 42 38 36 29 25 22
21 20 20 21 22 24 26 28 29 30 32 35 38 40 41 44 45 46 46 45 47 49 49 52 54 52 47 48 49 50 52 51 49 47 45 42 43 40 37 36 30 25 21
18 19 21 22 23 23 25 27 30 33 36 37 38 39 40 41 41 40 41 42 44 44 44 47 48 48 46 45 45 44 45 46 46 43 41 42 41 39 38 36 33 28 24
16 17 18 20 23 26 29 32 34 36 36 35 35 36 36 38 39 39 40 41 44 45 44 46 46 44 42 42 41 40 39 40 41 40 43 42 41 40 38 36 36 33 29
20 23 25 28 30 31 32 32 32 33 32 33 34 35 36 36 36 37 38 41 43 44 45 44 43 41 42 43 40 40 39 39 40 40 41 41 41 40 38 39 36 38 36
Wind_Direction_500mb
199 196 195 192 190 190 188 188 187 185 188 191 191 195 196 195 199 221 197 128 28 2 358 350 344 336 331 326 323 319 317 315 313 315 320 322 324 323 325 326 328 328 328
201 199 196 195 194 193 192 192 191 193 194 196 196 199 201 204 212 222 213 239 301 328 340 340 337 331 327 323 318 314 311 311 310 312 317 321 322 323 326 327 329 329 330
202 199 198 198 197 196 197 197 197 197 197 197 204 209 210 211 218 226 226 257 295 313 322 324 325 325 323 318 312 307 308 309 310 312 316 321 322 327 327 329 329 328 327
202 200 201 203 203 201 202 202 202 201 203 205 210 214 215 217 222 228 239 256 278 299 309 311 315 318 316 311 306 305 306 307 310 313 318 322 324 328 329 326 324 327 326
204 204 205 206 206 205 205 205 204 205 208 213 215 215 216 220 229 237 246 260 279 291 295 298 305 309 307 302 301 304 304 305 311 315 319 319 323 325 328 326 323 325 322
208 209 208 208 208 209 209 208 207 209 212 216 218 218 220 226 233 243 247 263 275 283 287 291 298 302 302 300 300 299 300 305 309 312 315 315 318 323 326 325 316 315 317
210 210 210 211 211 212 212 211 213 215 218 221 222 223 225 229 235 243 247 257 270 280 282 286 293 297 295 295 294 294 296 299 305 305 308 314 318 323 318 314 317 315 314
212 212 213 213 214 215 216 217 218 221 224 227 231 227 230 231 243 242 247 256 268 276 279 284 292 294 294 294 293 293 295 302 308 311 310 313 313 309 311 312 312 313 313
216 217 218 218 219 220 220 222 224 228 227 241 234 231 233 239 243 245 249 257 265 272 277 284 289 293 292 289 288 291 297 301 306 303 302 307 312 314 314 312 316 319 322
222 224 224 221 227 227 227 228 232 234 243 243 233 235 239 242 245 247 250 259 264 271 277 283 286 288 286 284 285 288 290 299 301 301 309 309 311 312 313 312 318 320 323
227 227 229 234 232 232 230 230 237 237 244 236 236 239 244 249 251 253 255 260 266 272 276 281 285 285 286 285 282 283 287 293 290 300 305 307 308 308 309 312 317 319 319
229 232 234 234 233 233 231 238 240 242 240 239 240 243 247 252 256 258 259 262 267 270 275 280 283 284 283 282 279 274 272 277 291 299 302 304 306 307 309 312 314 313 315
224 223 225 227 232 237 236 237 239 238 237 239 241 245 251 258 262 263 262 262 264 268 275 280 281 283 283 277 264 263 270 280 291 301 302 301 302 305 307 310 311 313 313
226 226 227 229 231 233 235 238 240 239 238 240 243 249 255 260 264 264 263 264 264 265 270 275 278 278 274 272 276 278 283 286 294 300 299 297 299 302 305 310 313 316 316
219 225 229 232 234 237 238 240 239 239 240 244 251 259 263 263 264 265 262 261 264 267 269 271 273 273 277 279 280 284 288 288 291 298 292 292 295 298 302 307 311 315 319
225 231 234 236 238 239 239 239 238 238 242 247 251 255 259 263 266 266 264 264 267 271 272 277 281 282 283 285 284 286 288 288 292 293 289 288 291 296 300 304 308 314 320
242 245 246 246 246 245 246 245 243 245 250 253 258 263 267 264 261 263 269 275 277 267 259 262 267 274 280 282 284 285 285 286 290 289 286 285 289 292 296 301 305 313 319
248 250 250 249 249 250 251 249 248 250 254 259 263 265 263 262 267 268 263 258 258 257 258 262 267 270 272 275 278 280 282 284 285 286 283 282 285 288 292 296 302 313 321
255 256 254 250 248 248 247 248 251 253 256 258 259 260 263 261 262 264 265 269 273 275 273 271 272 273 275 276 277 278 278 279 280 279 278 280 282 283 286 290 297 310 318
260 259 258 256 255 254 254 255 257 259 260 261 262 262 261 266 268 271 273 274 275 278 279 278 279 278 278 280 279 279 279 277 275 272 274 276 277 278 281 283 293 306 317
257 256 254 252 251 251 252 253 257 262 266 269 270 272 273 272 273 278 278 278 280 281 283 284 284 282 282 281 279 278 278 275 270 270 272 271 270 271 272 275 287 296 309
260 259 258 256 255 255 259 263 265 267 269 270 272 274 275 279 283 286 288 290 288 288 288 288 287 288 288 286 282 280 276 274 271 272 270 265 266 267 267 267 277 285 298
251 249 249 252 255 258 259 260 263 266 271 275 276 277 279 281 282 284 286 285 284 285 286 287 289 291 289 285 281 279 278 276 274 270 265 264 264 263 262 261 268 274 285
252 253 254 255 255 256 260 265 270 274 277 278 280 281 281 281 283 285 285 284 284 285 286 286 287 289 287 285 282 280 277 275 272 268 265 265 263 259 259 259 260 266 277
253 256 260 265 269 269 271 272 273 275 277 277 278 279 280 282 284 285 286 287 288 289 287 286 287 287 289 288 286 283 277 272 272 271 269 267 264 258 257 261 258 260 265
259 262 265 267 269 270 270 270 270 271 273 274 276 278 280 281 286 290 292 291 290 289 289 288 287 287 288 285 283 281 279 277 273 270 268 264 261 259 260 259 262 263 264
Wind_Speed_850mb
87 86 86 86 78 70 61 55 47 42 37 33 29 24 18 11 6 4 2 1 3 8 13 17 21 24 27 31 35 38 40 44 55 67 70 78 86 89 87 88 90 89 82
89 87 90 87 81 73 66 56 49 44 42 37 34 27 20 15 10 6 5 4 5 10 15 20 24 27 31 34 37 40 43 45 51 64 72 81 87 87 89 93 94 94 94
90 90 90 88 82 74 67 59 54 50 46 44 38 30 25 20 14 11 10 9 11 15 19 23 27 31 34 37 39 42 44 46 51 63 76 82 87 88 93 96 98 96 94
92 92 90 88 82 76 70 63 58 53 50 47 41 37 31 23 18 16 16 15 15 20 25 28 31 34 36 38 40 42 45 48 53 63 73 83 85 87 88 90 104 95 96
95 95 93 88 81 78 73 67 62 57 54 50 46 42 36 28 23 20 21 19 21 24 28 32 34 35 36 38 41 42 44 49 55 62 70 76 83 90 89 86 90 93 89
99 95 91 87 84 80 74 70 65 61 60 57 52 46 38 31 27 24 27 24 27 28 31 35 37 38 38 39 42 43 45 49 53 58 63 68 80 83 78 80 78 100 102
103 99 93 90 87 83 77 73 68 67 64 60 53 51 42 37 31 32 31 29 31 32 36 38 39 40 40 41 42 45 47 48 51 46 61 64 77 67 70 87 87 88 93
104 100 97 93 88 82 78 74 71 69 65 58 59 53 48 41 39 40 36 35 36 38 40 41 43 44 43 45 46 50 51 53 57 55 60 67 58 61 67 73 76 81 85
105 102 96 91 86 83 81 78 72 68 66 61 67 59 52 46 47 45 44 44 42 43 44 44 46 48 47 48 50 53 55 57 55 58 65 63 62 63 62 67 69 74 87
100 97 95 87 82 87 81 76 66 69 65 74 68 62 54 54 52 52 53 52 50 48 47 49 50 52 51 51 51 50 57 56 57 69 70 67 63 61 57 57 59 66 73
85 86 86 86 90 83 78 73 67 71 78 75 67 62 60 59 57 57 58 60 56 54 54 53 52 54 56 55 51 51 56 51 60 66 70 69 64 62 57 54 54 58 66
62 62 68 77 79 79 78 71 71 80 76 72 69 66 66 64 62 62 64 62 60 62 59 56 56 57 60 57 48 45 56 51 62 68 68 66 64 63 60 56 57 60 60
37 41 49 58 62 63 71 80 79 73 72 70 69 70 67 64 65 63 63 63 63 63 63 59 60 62 59 45 49 55 64 64 64 68 67 65 62 62 62 62 59 62 64
38 45 53 59 65 67 68 67 66 66 67 68 68 67 65 66 64 64 65 63 63 63 60 59 59 59 56 56 59 55 58 61 65 68 67 66 63 61 63 61 63 62 69
29 36 42 47 50 53 55 58 61 61 62 64 64 63 63 65 62 59 62 64 62 60 59 64 65 62 62 61 59 62 63 64 66 65 64 65 63 61 60 58 56 57 60
26 31 35 38 41 45 50 54 58 61 63 63 64 65 65 66 66 62 61 62 62 60 54 60 64 65 68 69 65 66 68 69 66 65 61 61 61 59 60 54 52 52 55
24 28 34 38 42 46 50 56 60 59 59 60 62 64 65 54 54 55 52 43 36 36 50 62 69 74 75 75 75 73 73 70 70 63 58 58 57 57 55 51 49 48 50
29 30 35 38 41 45 47 50 52 53 54 53 54 51 50 47 48 47 47 50 58 61 65 70 75 76 79 81 81 78 76 72 67 61 56 55 53 54 51 46 43 44 45
35 36 38 39 41 45 48 50 52 51 50 47 45 46 46 48 52 55 57 61 61 62 63 66 69 72 76 79 78 76 74 70 63 58 55 52 49 49 47 41 40 36 37
34 35 37 37 38 39 39 39 39 38 37 37 38 40 43 48 50 52 53 56 58 60 63 67 68 68 69 68 66 63 62 60 54 54 53 49 46 46 44 39 34 34 30
28 28 28 28 28 29 30 30 30 31 32 34 36 40 40 46 48 48 49 52 55 59 60 61 60 60 60 59 60 59 56 53 51 51 50 46 44 44 40 37 31 28 27
24 23 23 22 21 21 22 25 28 31 34 35 36 36 40 44 47 50 51 52 52 54 53 54 55 52 51 52 53 53 52 52 50 49 48 44 44 42 38 36 29 25 22
21 20 20 21 22 24 26 28 29 30 32 35 38 40 41 44 45 46 46 45 47 49 49 52 54 52 47 48 49 50 52 51 49 47 45 42 43 40 37 36 30 25 21
18 19 21 22 23 23 25 27 30 33 36 37 38 39 40 41 41 40 41 42 44 44 44 47 48 48 46 45 45 44 45 46 46 43 41 42 41 39 38 36 33 28 24
16 17 18 20 23 26 29 32 34 36 36 35 35 36 36 38 39 39 40 41 44 45 44 46 46 44 42 42 41 40 39 40 41 40 43 42 41 40 38 36 36 33 29
20 23 25 28 30 31 32 32 32 33 32 33 34 35 36 36 36 37 38 41 43 44 45 44 43 41 42 43 40 40 39 39 40 40 41 41 41 40 38 39 36 38 36
Wind_Direction_850mb
199 196 195 192 190 190 188 188 187 185 188 191 191 195 196 195 199 221 197 128 28 2 358 350 344 336 331 326 323 319 317 315 313 315 320 322 324 323 325 326 328 328 328
201 199 196 195 194 193 192 192 191 193 194 196 196 199 201 204 212 222 213 239 301 328 340 340 337 331 327 323 318 314 311 311 310 312 317 321 322 323 326 327 329 329 330
202 199 198 198 197 196 197 197 197 197 197 197 204 209 210 211 218 226 226 257 295 313 322 324 325 325 323 318 312 307 308 309 310 312 316 321 322 327 327 329 329 328 327
202 200 201 203 203 201 202 202 202 201 203 205 210 214 215 217 222 228 239 256 278 299 309 311 315 318 316 311 306 305 306 307 310 313 318 322 324 328 329 326 324 327 326
204 204 205 206 206 205 205 205 204 205 208 213 215 215 216 220 229 237 246 260 279 291 295 298 305 309 307 302 301 304 304 305 311 315 319 319 323 325 328 326 323 325 322
208 209 208 208 208 209 209 208 207 209 212 216 218 218 220 226 233 243 247 263 275 283 287 291 298 302 302 300 300 299 300 305 309 312 315 315 318 323 326 325 316 315 317
210 210 210 211 211 212 212 211 213 215 218 221 222 223 225 229 235 243 247 257 270 280 282 286 293 297 295 295 294 294 296 299 305 305 308 314 318 323 318 314 317 315 314
212 212 213 213 214 215 216 217 218 221 224 227 231 227 230 231 243 242 247 256 268 276 279 284 292 294 294 294 293 293 295 302 308 311 310 313 313 309 311 312 312 313 313
216 217 218 218 219 220 220 222 224 228 227 241 234 231 233 239 243 245 249 257 265 272 277 284 289 293 292 289 288 291 297 301 306 303 302 307 312 314 314 312 316 319 322
222 224 224 221 227 227 227 228 232 234 243 243 233 235 239 242 245 247 250 259 264 271 277 283 286 288 286 284 285 288 290 299 301 301 309 309 311 312 313 312 318 320 323
227 227 229 234 232 232 230 230 237 237 244 236 236 239 244 249 251 253 255 260 266 272 276 281 285 285 286 285 282 283 287 293 290 300 305 307 308 308 309 312 317 319 319
229 232 234 234 233 233 231 238 240 242 240 239 240 243 247 252 256 258 259 262 267 270 275 280 283 284 283 282 279 274 272 277 291 299 302 304 306 307 309 312 314 313 315
224 223 225 227 232 237 236 237 239 238 237 239 241 245 251 258 262 263 262 262 264 268 275 280 281 283 283 277 264 263 270 280 291 301 302 301 302 305 307 310 311 313 313
226 226 227 229 231 233 235 238 240 239 238 240 243 249 255 260 264 264 263 264 264 265 270 275 278 278 274 272 276 278 283 286 294 300 299 297 299 302 305 310 313 316 316
219 225 229 232 234 237 238 240 239 239 240 244 251 259 263 263 264 265 262 261 264 267 269 271 273 273 277 279 280 284 288 288 291 298 292 292 295 298 302 307 311 315 319
225 231 234 236 238 239 239 239 238 238 242 247 251 255 259 263 266 266 264 264 267 271 272 277 281 282 283 285 284 286 288 288 292 293 289 288 291 296 300 304 308 314 320
242 245 246 246 246 245 246 245 243 245 250 253 258 263 267 264 261 263 269 275 277 267 259 262 267 274 280 282 284 285 285 286 290 289 286 285 289 292 296 301 305 313 319
248 250 250 249 249 250 251 249 248 250 254 259 263 265 263 262 267 268 263 258 258 257 258 262 267 270 272 275 278 280 282 284 285 286 283 282 285 288 292 296 302 313 321
255 256 254 250 248 248 247 248 251 253 256 258 259 260 263 261 262 264 265 269 273 275 273 271 272 273 275 276 277 278 278 279 280 279 278 280 282 283 286 290 297 310 318
260 259 258 256 255 254 254 255 257 259 260 261 262 262 261 266 268 271 273 274 275 278 279 278 279 278 278 280 279 279 279 277 275 272 274 276 277 278 281 283 293 306 317
257 256 254 252 251 251 252 253 257 262 266 269 270 272 273 272 273 278 278 278 280 281 283 284 284 282 282 281 279 278 278 275 270 270 272 271 270 271 272 275 287 296 309
260 259 258 256 255 255 259 263 265 267 269 270 272 274 275 279 283 286 288 290 288 288 288 288 287 288 288 286 282 280 276 274 271 272 270 265 266 267 267 267 277 285 298
251 249 249 252 255 258 259 260 263 266 271 275 276 277 279 281 282 284 286 285 284 285 286 287 289 291 289 285 281 279 278 276 274 270 265 264 264 263 262 261 268 274 285
252 253 254 255 255 256 260 265 270 274 277 278 280 281 281 281 283 285 285 284 284 285 286 286 287 289 287 285 282 280 277 275 272 268 265 265 263 259 259 259 260 266 277
253 256 260 265 269 269 271 272 273 275 277 277 278 279 280 282 284 285 286 287 288 289 287 286 287 287 289 288 286 283 277 272 272 271 269 267 264 258 257 261 258 260 265
259 262 265 267 269 270 270 270 270 271 273 274 276 278 280 281 286 290 292 291 290 289 289 288 287 287 288 285 283 281 279 277 273 270 268 264 261 259 260 259 262 263 264